Wind_Speed
50 51 52 54 56 58 60 63 65 66 66 66 68 70 72 73 74 76 77 79 82 85 88 91 93 96 98 98 97 94 92 88 85 82 81 80 81 83
51 52 54 56 58 60 62 65 67 70 71 70 72 73 74 75 77 79 82 85 88 92 95 98 99 98 95 90 84 77 71 66 62 61 60 60 60 62
52 54 56 58 60 62 65 67 69 71 73 72 74 75 77 79 81 85 88 91 94 97 98 97 93 87 79 71 64 58 53 51 49 49 48 49 50 51
54 56 58 60 63 65 67 69 71 72 74 74 74 77 80 84 87 90 93 96 96 94 90 84 77 68 60 54 49 46 44 43 43 43 44 44 44 45
56 58 60 63 65 67 69 70 72 73 75 77 78 81 85 90 92 94 94 92 88 81 73 65 57 51 47 44 42 41 40 40 40 41 41 41 43 44
58 60 63 65 67 68 70 71 73 74 77 81 83 87 90 94 94 92 86 80 71 63 56 50 46 44 42 41 41 40 39 39 39 39 39 39 39 39
60 62 64 66 68 69 71 72 74 78 82 86 89 92 93 92 89 83 73 62 53 50 45 43 42 41 41 42 41 41 40 39 39 37 37 36 36 36
61 63 65 67 68 69 72 75 79 84 88 92 93 93 90 85 77 67 57 48 43 43 42 40 41 40 41 41 41 40 39 38 37 36 35 34 34 33
62 64 65 67 69 71 74 79 84 90 94 95 91 86 79 70 62 53 47 43 42 42 42 39 39 39 40 40 40 38 37 36 34 33 33 33 33 33
63 64 66 69 72 75 79 84 89 92 92 88 81 73 64 56 50 46 43 42 40 42 43 39 38 38 38 39 38 36 34 33 32 31 31 30 31 31
63 66 69 72 76 81 85 88 89 87 81 74 66 59 52 48 45 44 43 42 40 39 43 41 39 37 35 36 36 33 31 30 29 28 28 28 29 29
64 68 73 77 81 85 87 87 82 74 66 58 53 49 45 44 44 44 43 43 41 39 40 39 37 36 31 32 33 31 29 28 27 26 26 26 27 27
67 72 76 81 83 85 84 79 70 60 53 48 44 42 42 42 43 43 43 43 42 40 39 36 33 32 29 25 28 29 27 26 25 25 25 25 26 27
71 75 79 81 82 80 75 66 56 49 44 41 40 40 40 41 42 42 42 41 41 40 37 35 31 28 25 23 23 25 25 24 24 24 24 26 28 29
74 77 79 80 77 71 62 53 46 42 39 37 38 39 40 41 41 40 40 39 39 39 37 33 29 24 22 20 19 21 21 23 24 23 24 25 27 28
75 77 78 74 67 57 48 43 39 37 36 36 37 39 40 40 40 39 37 36 35 35 35 32 26 22 19 17 16 17 19 20 22 23 24 25 28 29
75 75 70 62 52 44 39 36 34 34 35 37 38 38 38 38 38 38 36 34 32 30 28 27 24 20 17 15 14 15 16 18 20 21 22 24 27 29
72 67 58 48 39 34 32 32 32 34 35 37 38 38 37 37 36 36 34 32 29 27 24 21 18 17 16 16 15 13 15 17 19 21 23 25 25 28
63 54 43 35 30 29 29 30 32 34 36 37 37 37 36 36 35 33 31 29 27 24 21 17 15 14 13 14 17 17 15 17 19 22 24 26 26 27
50 39 31 26 26 27 28 30 32 35 36 37 37 36 36 34 33 31 29 26 23 19 17 16 14 12 11 11 13 17 19 20 21 22 24 25 26 27
35 27 23 23 25 27 29 31 33 35 36 36 36 36 35 33 31 29 25 23 19 16 14 14 13 12 11 11 13 15 19 22 23 23 22 22 23 24
24 21 21 23 25 27 29 31 34 35 36 36 36 35 33 31 29 25 22 19 16 14 12 12 11 11 11 12 14 16 18 21 23 23 23 23 22 21
18 19 20 22 24 27 29 32 34 34 35 35 35 33 31 29 26 22 19 16 14 12 11 10 10 11 12 13 15 17 18 20 21 22 23 23 22 21
Wind_Direction
293 294 294 296 297 298 299 300 300 300 300 301 300 300 299 299 298 298 297 296 296 295 294 293 292 291 290 289 287 285 283 281 278 276 273 270 268 265
294 295 296 297 298 300 301 301 302 302 302 303 302 302 301 301 300 300 299 299 299 298 297 296 295 294 293 291 289 286 283 281 278 276 274 271 269 267
295 296 297 299 300 301 302 302 303 303 303 303 303 303 303 302 302 302 302 301 300 299 298 297 296 295 293 291 288 285 282 280 278 277 275 273 272 269
297 298 299 300 301 302 303 303 304 304 304 304 304 304 304 303 303 303 303 302 301 300 299 298 296 294 292 290 287 284 281 280 279 277 276 275 273 271
298 299 301 302 303 304 304 305 305 305 305 305 306 305 305 305 305 305 304 303 302 300 299 298 296 294 292 289 287 285 283 282 280 278 277 276 274 273
299 301 302 303 304 305 305 306 306 306 306 307 307 307 306 306 306 305 305 304 302 300 299 298 296 294 292 289 288 287 286 284 282 280 279 277 276 275
301 302 303 304 305 306 306 307 307 307 307 307 308 307 307 306 306 306 305 304 302 299 299 297 296 294 292 291 290 289 288 287 285 283 281 279 279 278
302 303 304 305 306 307 307 308 308 308 308 308 308 308 308 307 307 307 305 303 301 298 298 296 295 293 291 290 289 288 288 287 286 284 282 281 280 279
303 304 305 306 307 307 308 308 309 309 309 309 309 309 308 308 307 306 305 304 303 299 297 295 294 293 291 289 288 288 287 285 284 283 281 281 280 280
305 306 306 307 307 308 308 309 309 310 309 309 309 309 309 308 307 307 305 304 304 301 298 297 295 294 292 289 287 287 284 284 284 282 280 280 279 279
306 307 307 307 308 308 309 310 310 310 310 310 310 310 310 310 310 309 308 307 306 304 301 300 298 295 292 288 287 286 284 285 284 282 281 280 280 280
307 308 308 308 309 309 310 311 311 311 311 310 311 311 312 313 313 312 311 309 308 305 301 301 300 295 291 287 286 285 285 285 284 283 282 282 282 282
308 308 309 309 310 311 312 313 313 312 312 311 311 312 313 314 314 314 313 312 311 309 306 303 301 297 293 285 283 284 285 285 286 288 288 286 286 286
310 310 311 311 312 313 314 314 314 314 314 313 313 314 314 314 315 315 314 314 313 312 310 308 304 299 292 284 280 280 284 286 287 289 291 291 291 292
312 312 313 313 314 314 315 315 315 315 315 315 315 316 316 315 315 315 315 315 315 313 313 312 308 302 294 286 280 277 277 282 287 289 292 293 292 294
314 314 315 315 315 315 315 316 316 317 317 317 318 318 317 317 317 317 316 314 314 313 313 313 311 305 297 290 283 276 278 278 282 289 293 294 296 297
315 315 316 317 317 317 318 319 319 320 320 320 321 321 320 320 319 319 318 318 317 315 312 311 311 309 303 295 287 283 284 287 290 293 294 298 300 301
316 317 318 318 318 319 321 323 324 324 324 324 324 323 322 322 321 321 320 320 319 318 315 311 308 307 308 307 302 294 294 298 302 303 304 306 306 305
319 319 320 321 322 325 326 327 327 328 328 327 327 326 325 325 324 323 323 322 321 319 317 316 312 307 304 304 307 309 309 310 311 311 311 311 311 310
321 322 324 326 329 331 332 333 333 333 332 331 330 329 329 328 327 327 325 325 323 321 319 321 320 316 312 308 308 312 317 320 319 319 318 317 317 317
323 326 329 332 335 336 337 337 337 337 337 336 335 334 333 332 331 330 330 329 328 326 324 325 327 326 324 322 321 320 322 325 327 327 325 325 325 324
327 331 334 337 339 341 342 342 341 341 341 341 340 339 338 338 337 336 336 336 336 335 334 335 336 337 336 334 333 332 331 331 332 333 333 335 336 336
333 336 339 342 344 345 346 346 346 346 346 346 346 346 346 345 345 344 344 346 349 351 352 352 352 350 348 345 344 343 341 341 340 339 340 343 346 348
Height
5680 5676 5672 5667 5662 5657 5651 5645 5639 5635 5632 5625 5616 5609 5600 5593 5585 5577 5569 5561 5553 5544 5534 5525 5516 5507 5498 5489 5481 5473 5467 5461 5456 5452 5449 5447 5447 5448
5669 5665 5660 5655 5649 5643 5637 5630 5622 5616 5611 5606 5596 5588 5579 5571 5563 5554 5545 5536 5526 5515 5504 5493 5483 5473 5463 5454 5446 5440 5435 5431 5427 5425 5423 5422 5422 5422
5657 5653 5647 5642 5635 5628 5621 5614 5606 5598 5592 5587 5577 5567 5558 5549 5540 5530 5519 5509 5498 5485 5473 5462 5451 5442 5433 5426 5421 5416 5413 5411 5408 5407 5405 5404 5403 5403
5645 5640 5634 5628 5621 5613 5606 5598 5589 5580 5572 5567 5559 5548 5537 5526 5517 5506 5494 5481 5468 5456 5444 5434 5425 5417 5411 5406 5403 5400 5397 5395 5394 5392 5390 5389 5388 5387
5633 5627 5620 5613 5605 5598 5589 5581 5572 5562 5553 5545 5538 5527 5515 5502 5492 5481 5468 5454 5440 5428 5419 5412 5405 5400 5395 5391 5388 5386 5384 5382 5380 5378 5376 5375 5373 5372
5619 5613 5605 5598 5590 5582 5573 5563 5554 5544 5534 5524 5515 5505 5492 5478 5465 5455 5445 5430 5418 5407 5401 5395 5391 5386 5382 5378 5375 5372 5370 5368 5366 5364 5363 5361 5360 5358
5606 5598 5591 5582 5574 5565 5556 5546 5536 5525 5515 5504 5493 5482 5468 5454 5442 5429 5420 5412 5401 5391 5389 5383 5378 5374 5370 5366 5362 5359 5357 5355 5353 5351 5349 5348 5346 5345
5592 5584 5576 5567 5558 5549 5539 5528 5516 5504 5493 5481 5470 5457 5444 5430 5419 5409 5401 5396 5391 5381 5377 5373 5367 5363 5358 5354 5350 5347 5344 5342 5340 5338 5336 5335 5333 5332
5578 5570 5561 5551 5542 5532 5522 5511 5497 5481 5468 5456 5445 5432 5421 5410 5402 5395 5387 5381 5376 5368 5364 5362 5356 5351 5346 5341 5337 5335 5332 5330 5328 5326 5325 5323 5321 5320
5563 5554 5545 5535 5525 5515 5505 5493 5478 5463 5448 5434 5423 5413 5402 5393 5387 5381 5375 5370 5365 5356 5349 5348 5344 5340 5334 5328 5325 5323 5321 5319 5317 5315 5313 5312 5310 5309
5549 5539 5529 5519 5508 5497 5486 5474 5460 5444 5428 5414 5404 5396 5388 5380 5374 5369 5363 5357 5354 5346 5337 5334 5331 5327 5323 5317 5313 5311 5309 5308 5306 5304 5302 5301 5299 5298
5535 5524 5512 5501 5489 5476 5464 5452 5439 5426 5413 5401 5391 5383 5376 5370 5363 5357 5351 5345 5340 5335 5328 5323 5318 5313 5313 5307 5303 5300 5298 5297 5296 5294 5292 5290 5288 5287
5519 5508 5495 5482 5469 5455 5442 5430 5418 5409 5399 5390 5382 5375 5368 5361 5354 5347 5340 5333 5328 5322 5316 5312 5308 5302 5299 5298 5294 5291 5289 5288 5286 5285 5282 5280 5278 5276
5502 5490 5477 5463 5449 5436 5423 5412 5403 5395 5387 5380 5373 5366 5360 5353 5346 5338 5331 5324 5316 5311 5305 5301 5297 5293 5290 5288 5286 5283 5281 5279 5278 5276 5274 5271 5268 5265
5484 5471 5458 5444 5431 5419 5408 5399 5392 5385 5378 5371 5365 5358 5351 5344 5337 5330 5323 5316 5308 5301 5295 5291 5287 5284 5281 5280 5278 5276 5274 5273 5270 5268 5266 5263 5260 5256
5466 5453 5439 5427 5415 5405 5397 5390 5383 5376 5370 5364 5357 5350 5342 5334 5327 5321 5315 5308 5302 5295 5287 5282 5279 5276 5274 5272 5271 5269 5268 5266 5265 5261 5258 5255 5251 5246
5451 5437 5424 5413 5403 5395 5388 5382 5375 5369 5362 5355 5348 5341 5333 5326 5318 5311 5305 5299 5293 5288 5283 5277 5273 5270 5267 5266 5265 5263 5262 5260 5257 5254 5251 5247 5242 5236
5434 5422 5411 5402 5394 5388 5382 5375 5369 5363 5355 5348 5340 5333 5325 5318 5311 5303 5297 5291 5286 5281 5276 5272 5269 5266 5264 5261 5259 5258 5257 5254 5251 5247 5242 5238 5234 5227
5419 5408 5400 5393 5387 5382 5376 5370 5363 5356 5348 5340 5332 5325 5317 5310 5303 5296 5290 5285 5279 5275 5270 5267 5265 5263 5261 5259 5256 5253 5250 5248 5245 5241 5235 5230 5224 5218
5406 5399 5393 5387 5382 5377 5371 5365 5358 5350 5342 5333 5325 5317 5310 5303 5296 5290 5284 5279 5274 5270 5267 5264 5261 5259 5257 5256 5254 5250 5246 5242 5238 5234 5229 5223 5216 5210
5397 5392 5388 5383 5378 5373 5367 5360 5352 5345 5336 5328 5319 5311 5304 5297 5290 5284 5278 5274 5270 5267 5264 5261 5259 5257 5254 5253 5251 5248 5243 5238 5233 5227 5222 5217 5211 5204
5392 5388 5384 5380 5375 5369 5363 5356 5348 5340 5331 5323 5314 5306 5299 5291 5285 5279 5275 5271 5267 5264 5262 5260 5258 5255 5253 5251 5248 5245 5241 5236 5230 5223 5217 5211 5205 5199
5388 5385 5381 5377 5372 5366 5360 5353 5345 5337 5328 5320 5311 5303 5296 5289 5282 5277 5272 5269 5266 5263 5261 5259 5257 5255 5253 5250 5246 5243 5238 5233 5228 5222 5215 5209 5202 5196